Location: Aiyede
(8.4833°N, 4.4500°E)
Time: 02:12:06
(UTC+00:00)

Envisat - Pass Details

Date: 28 November 2020
Orbit: 764 x 766 km, 98.1° (Epoch: 23 January)

Event Time Altitude Azimuth Distance (km) Brightness Sun altitude
Rises 18:16:33 0° 207° (SSW) 3,222 7.0 -13.8°
Reaches altitude 10° 18:20:17 10° 236° (SW) 2,296 6.8 -14.6°
Maximum altitude 18:22:21 12° 260° (W) 2,127 6.6 -15.1°
Drops below altitude 10° 18:24:25 10° 284° (WNW) 2,296 6.3 -15.6°
Sets 18:28:11 0° 313° (NW) 3,221 6.6 -16.5°
